[[{"header":{"parameterUnit":"m.s-1","parameterCategory":1,"la1":30.2992,"la2":30.254,"lo1":-89.0895,"lo2":-89.0443,"dy":0.0025,"dx":0.0025,"nx":19,"ny":19,"refTime":"2026-05-10T21:00:00:Z","depth":0,"parameterNumber":2,"parameterNumberName":"U-component_of_WINDS"},"data":[0,0,0,0.3154,0.3154,0.3152,0.3152,0.3144,0.3143,0,0,0,0,0,0,0,0,0,0,0,0.3152,0.3152,0.3154,0.3154,0.3152,0.3152,0.3144,0.3143,0,0,0,0,0,0,0,0,0,0,0,0.3152,0.3152,0.3151,0.3154,0.3152,0.3152,0.3144,0.3147,0,0,0,0,0,0,0,0,0,0,0.315,0.3145,0.3152,0.3151,0.3154,0.3152,0.3152,0.3147,0.3147,0.3142,0,0.3138,0,0.3141,0.3143,0.3142,0,0,0,0.3156,0.3146,0.3148,0.3151,0.3154,0.3152,0.3153,0.3147,0.3147,0.3142,0.3138,0.3138,0.314,0.3142,0.3142,0.3111,0.3111,0,0,0.3156,0.315,0.3148,0.3147,0.3148,0.3153,0.3153,0.3147,0.3142,0.3138,0.3138,0.314,0.3142,0.3142,0.3111,0.3111,0,0,0,0.3155,0.315,0.3152,0.3147,0.3147,0.3153,0.3153,0.3142,0.3144,0.3138,0.314,0.3142,0.3142,0.3112,0.3111,0.3093,0,0,0,0.3155,0.3149,0.3152,0.3148,0.3148,0.3145,0.3149,0.3144,0.3144,0.314,0.3142,0.3142,0.3112,0.3111,0.3094,0.3085,0,0,0,0.3153,0.3149,0.3148,0.3148,0.3147,0.3145,0.3146,0.3144,0.3145,0.3142,0.3142,0.3112,0.3111,0.3095,0.3086,0.3074,0,0,0,0.3148,0.3131,0.3147,0.3129,0.3147,0.3134,0.3146,0.3137,0.3133,0.3142,0.3112,0.3111,0.3095,0.3087,0.3075,0.3062,0.3057,0,0,0.3123,0.3128,0.3117,0.3132,0.3115,0.3135,0.3116,0.3117,0.3123,0.3115,0.3114,0.3094,0.3087,0.3075,0.3028,0.3024,0,0,0,0.3107,0.31,0.3097,0.3092,0.3094,0.3094,0.31,0.3101,0.3094,0.3117,0.3087,0.3083,0.3076,0.307,0.3066,0.306,0.3109,0.3109,0.3109,0.306,0.3069,0.3053,0.3061,0.3057,0.3064,0.3061,0.3063,0.3073,0.3066,0.3063,0.3034,0.3027,0.3024,0.3018,0.3057,0.3057,0.3057,0.3057,0.3023,0.3013,0.3028,0.3017,0.3026,0.3017,0.3023,0.303,0.3023,0.3036,0.3031,0.3044,0.3018,0.3014,0.3056,0.3056,0.3056,0.3057,0.3057,0.2993,0.299,0.2992,0.2987,0.2983,0.2992,0.2985,0.2993,0.3002,0.2996,0.2994,0.2994,0.2995,0.2995,0.2995,0.2995,0.2995,0.2994,0.2994,0.296,0.2963,0.2956,0.2957,0.2955,0.2955,0.2962,0.2961,0.2962,0.2969,0.2969,0.2979,0.3015,0.3023,0.2993,0.2993,0.2993,0.2993,0.2994,0.2917,0.2928,0.2917,0.2916,0.2918,0.2913,0.2925,0.2922,0.2923,0.2919,0.293,0.2956,0.2961,0.2964,0.2971,0.2929,0.2929,0.2929,0.2929,0.289,0.2894,0.2885,0.2883,0.2882,0.2892,0.2878,0.2884,0.2892,0.2893,0.29,0.2911,0.2914,0.2917,0.2921,0.2928,0.2876,0.2876,0.2876,0.2864,0.2869,0.2855,0.2864,0.2866,0.2868,0.2856,0.2853,0.2864,0.2874,0.2893,0.2896,0.2912,0.2917,0.2926,0.2932,0.2944,0,0]},{"header":{"parameterUnit":"m.s-1","parameterCategory":1,"la1":30.2992,"la2":30.254,"lo1":-89.0895,"lo2":-89.0443,"dy":0.0025,"dx":0.0025,"nx":19,"ny":19,"refTime":"2026-05-10T21:00:00:Z","depth":0,"parameterNumber":3,"parameterNumberName":"V-component_of_WINDS"},"data":[0,0,0,-1.5864,-1.5865,-1.5917,-1.5917,-1.5984,-1.5984,0,0,0,0,0,0,0,0,0,0,0,-1.5849,-1.585,-1.5864,-1.5866,-1.5917,-1.5917,-1.5983,-1.5984,0,0,0,0,0,0,0,0,0,0,0,-1.5849,-1.585,-1.585,-1.5866,-1.5917,-1.5917,-1.5983,-1.5944,0,0,0,0,0,0,0,0,0,0,-1.5894,-1.5881,-1.585,-1.585,-1.5866,-1.5917,-1.5917,-1.5942,-1.5947,-1.596,0,-1.5973,0,-1.598,-1.5989,-1.5989,0,0,0,-1.5865,-1.5877,-1.5891,-1.585,-1.5867,-1.5917,-1.5894,-1.5945,-1.595,-1.5966,-1.5974,-1.5976,-1.5981,-1.5989,-1.5989,-1.607,-1.607,0,0,-1.5863,-1.5859,-1.5887,-1.5894,-1.5886,-1.5892,-1.5895,-1.5948,-1.5956,-1.5974,-1.5978,-1.5982,-1.599,-1.599,-1.6069,-1.607,0,0,0,-1.5854,-1.5857,-1.5869,-1.5891,-1.59,-1.5894,-1.5897,-1.5953,-1.5958,-1.5978,-1.5983,-1.599,-1.5991,-1.6069,-1.6069,-1.6084,0,0,0,-1.5853,-1.5852,-1.5868,-1.5866,-1.5899,-1.5927,-1.5902,-1.5954,-1.596,-1.5982,-1.599,-1.5991,-1.6068,-1.6069,-1.6083,-1.6092,0,0,0,-1.5846,-1.5851,-1.5859,-1.5866,-1.5888,-1.5927,-1.5934,-1.5955,-1.5963,-1.5989,-1.5992,-1.6068,-1.6069,-1.6082,-1.609,-1.6112,0,0,0,-1.5837,-1.5871,-1.5859,-1.5899,-1.5887,-1.5936,-1.5934,-1.597,-1.5994,-1.599,-1.6068,-1.6069,-1.6082,-1.6089,-1.6111,-1.6129,-1.6137,0,0,-1.5878,-1.5876,-1.59,-1.589,-1.594,-1.5928,-1.598,-1.6006,-1.6012,-1.605,-1.6052,-1.6084,-1.609,-1.6112,-1.6181,-1.6187,0,0,0,-1.5911,-1.5928,-1.5942,-1.5965,-1.5986,-1.6005,-1.6023,-1.6033,-1.6065,-1.6031,-1.6098,-1.6102,-1.6114,-1.6123,-1.6128,-1.614,-1.6073,-1.6073,-1.6073,-1.5962,-1.5969,-1.6008,-1.6021,-1.6044,-1.6063,-1.6082,-1.6098,-1.6097,-1.6113,-1.6124,-1.6165,-1.6176,-1.618,-1.6191,-1.6135,-1.6135,-1.6135,-1.6135,-1.6022,-1.6047,-1.6046,-1.6084,-1.6091,-1.6123,-1.6143,-1.6141,-1.6172,-1.6157,-1.6169,-1.6152,-1.6186,-1.6196,-1.6136,-1.6136,-1.6136,-1.6136,-1.6136,-1.6056,-1.6069,-1.6081,-1.6115,-1.6141,-1.6153,-1.6183,-1.6188,-1.6193,-1.6204,-1.6216,-1.6216,-1.6216,-1.621,-1.621,-1.621,-1.621,-1.621,-1.621,-1.6086,-1.6099,-1.6123,-1.6149,-1.6165,-1.6186,-1.6206,-1.6222,-1.6241,-1.6242,-1.6242,-1.624,-1.6188,-1.6175,-1.6213,-1.6212,-1.6212,-1.6212,-1.6212,-1.6143,-1.6131,-1.6169,-1.6185,-1.6216,-1.6241,-1.6248,-1.628,-1.6293,-1.6308,-1.6304,-1.6265,-1.6263,-1.6259,-1.6248,-1.6303,-1.6303,-1.6303,-1.6303,-1.6171,-1.6171,-1.6211,-1.6236,-1.6262,-1.6271,-1.6314,-1.6331,-1.6346,-1.6355,-1.6348,-1.6334,-1.6329,-1.633,-1.6325,-1.6314,-1.6385,-1.6385,-1.6385,-1.6207,-1.6209,-1.6244,-1.6259,-1.6284,-1.6305,-1.6345,-1.6375,-1.6389,-1.6388,-1.6362,-1.6358,-1.6336,-1.6328,-1.6325,-1.6317,-1.6298,0,0]}]]